Location: Newark
(46.6333°N, 8.8333°E)
Time: 23:13:27
(UTC+00:00)

Tiangong 2 - Visible Passes

Search period start: 19 July 2019 00:00
Search period end: 29 July 2019 00:00
Orbit: 185 x 376 km, 42.8° (Epoch: 19 July)

Date Brightness Start Highest point End Pass type
(mag) Time Alt. Az. Time Alt. Az. Time Alt. Az.
19 Jul 2.6 20:07:22 10° WSW 20:09:55 23° SSW 20:12:00 13° SSE visible
20 Jul 3.1 20:08:44 10° WSW 20:10:50 17° SSW 20:12:45 11° SSE visible
21 Jul 3.5 20:10:09 10° SW 20:11:18 12° SSW 20:12:26 10° S visible
